Location: Belloy
(55.7522°N, 118.2333°W)
Time: 22:48:01
(UTC+00:00)

Envisat - Pass Details

Date: 07 December 2021
Orbit: 764 x 766 km, 98.2° (Epoch: 27 January)

Event Time Altitude Azimuth Distance (km) Brightness Sun altitude
Rises 11:58:31 0° 21° (NNE) 3,249 6.6 -33.4°
Reaches altitude 10° 12:01:13 10° 35° (NE) 2,317 5.9 -33.0°
Maximum altitude 12:05:28 26° 91° (E) 1,488 5.0 -32.4°
Drops below altitude 10° 12:09:40 10° 147° (SSE) 2,302 5.7 -31.8°
Sets 12:12:19 0° 160° (SSE) 3,223 6.4 -31.5°
